Midlothian, TX

4:43 PM CDT on July 21, 2017 (GMT -0500)
Midlothian

Weather History for KJWY - March, 2013

Change the Weather History Date:

Thursday, March 21, 2013

  Actual Average (KRBD) Record (KRBD)
Temperature  
Mean Temperature 59 °F -  
Max Temperature 69 °F 65 °F 87 °F (1997)
Min Temperature 50 °F 47 °F 33 °F (2016)
Degree Days  
Heating Degree Days 6    
Growing Degree Days 9 (Base 50)    
Moisture  
Dew Point 42 °F    
Average Humidity 52    
Maximum Humidity 77    
Minimum Humidity 36    
Precipitation  
Precipitation 0.00 in - - ()
Sea Level Pressure  
Sea Level Pressure 29.79 in    
Wind  
Wind Speed 10 mph (SE)    
Max Wind Speed 28 mph    
Max Gust Speed 38 mph    
Visibility 10 miles    
Events      
Averages and records for this station are not official NWS values.
T = Trace of Precipitation, MM = Missing Value Source: NWS Daily Summary

Daily Weather History Graph

Daily Weather History Graph

Search for Another Location

Airport or City:

Trip Planner

Search our weather history database for the weather conditions in past years. The results will help you decide how hot, cold, wet, or windy it might be!

Date:

Astronomy

Mar. 21, 2013 Rise Set
Actual Time 7:29 AM CDT 7:40 PM CDT
Civil Twilight 7:05 AM CDT 8:04 PM CDT
Nautical Twilight 6:36 AM CDT 8:33 PM CDT
Astronomical Twilight 6:07 AM CDT 9:02 PM CDT
Moon 2:26 PM CDT 3:35 AM CDT
Length of Visible Light 12h 59m
Length of Day
12h 10m
Waxing Gibbous, 69% of the Moon is Illuminated
Mar 21
Waxing Gibbous
Mar 27
Full
Apr 2
Last Quarter
Apr 10
New
Apr 18
First Quarter

Hourly Weather History & Observations

Time (CDT) Temp. Dew Point Humidity Pressure Visibility Wind Dir Wind Speed Gust Speed Precip Events Conditions
12:15 AM 51.6 °F 27.9 °F 40% 30.06 in 10.0 mi Calm Calm - N/A   Clear
12:35 AM 50.9 °F 28.4 °F 42% 30.05 in 10.0 mi ESE 3.5 mph - N/A   Clear
12:55 AM 51.3 °F 28.2 °F 41% 30.05 in 10.0 mi ESE 3.5 mph - N/A   Clear
1:15 AM 50.2 °F 27.5 °F 42% 30.04 in 10.0 mi East 4.6 mph - N/A   Clear
1:35 AM 50.0 °F 28.2 °F 43% 30.03 in 10.0 mi ESE 4.6 mph - N/A   Clear
1:55 AM 50.4 °F 29.5 °F 45% 30.01 in 10.0 mi ESE 3.5 mph - N/A   Clear
2:15 AM 51.8 °F 27.9 °F 40% 30.00 in 10.0 mi ESE 5.8 mph - N/A   Clear
2:35 AM 53.1 °F 27.5 °F 37% 30.00 in 10.0 mi ESE 4.6 mph - N/A   Clear
2:55 AM 53.1 °F 26.6 °F 36% 29.99 in 10.0 mi SE 6.9 mph - N/A   Clear
3:35 AM 51.8 °F 28.8 °F 41% 29.98 in 10.0 mi ESE 4.6 mph - N/A   Clear
3:55 AM 51.6 °F 29.3 °F 42% 29.97 in 10.0 mi ESE 3.5 mph - N/A   Scattered Clouds
4:15 AM 52.0 °F 27.7 °F 39% 29.96 in 10.0 mi ESE 5.8 mph - N/A   Mostly Cloudy
4:35 AM 52.2 °F 26.4 °F 37% 29.95 in 10.0 mi SE 6.9 mph - N/A   Scattered Clouds
4:55 AM 52.3 °F 26.6 °F 37% 29.94 in 10.0 mi ESE 6.9 mph - N/A   Scattered Clouds
5:15 AM 52.3 °F 27.1 °F 38% 29.93 in 10.0 mi SE 9.2 mph - N/A   Mostly Cloudy
5:35 AM 52.7 °F 27.5 °F 38% 29.93 in 10.0 mi ESE 8.1 mph - N/A   Mostly Cloudy
5:55 AM 53.1 °F 28.2 °F 38% 29.93 in 10.0 mi ESE 8.1 mph 17.3 mph N/A   Mostly Cloudy
6:15 AM 52.7 °F 29.3 °F 41% 29.93 in 10.0 mi ESE 6.9 mph - N/A   Mostly Cloudy
6:35 AM 52.3 °F 30.0 °F 42% 29.94 in 10.0 mi SE 6.9 mph - N/A   Overcast
6:55 AM 51.8 °F 30.6 °F 44% 29.93 in 10.0 mi ESE 8.1 mph - N/A   Overcast
7:15 AM 51.8 °F 30.6 °F 44% 29.92 in 10.0 mi ESE 8.1 mph - N/A   Overcast
7:35 AM 52.2 °F 30.2 °F 43% 29.91 in 10.0 mi ESE 9.2 mph - N/A   Overcast
7:55 AM 52.3 °F 30.9 °F 44% 29.92 in 10.0 mi ESE 8.1 mph - N/A   Overcast
8:15 AM 53.2 °F 30.9 °F 43% 29.92 in 10.0 mi SE 11.5 mph 17.3 mph N/A   Overcast
8:35 AM 54.5 °F 30.9 °F 41% 29.92 in 10.0 mi SE 10.4 mph - N/A   Overcast
8:55 AM 54.1 °F 31.3 °F 42% 29.92 in 10.0 mi SE 11.5 mph 17.3 mph N/A   Overcast
9:15 AM 54.5 °F 32.4 °F 43% 29.91 in 10.0 mi ESE 10.4 mph 16.1 mph N/A   Overcast
9:35 AM 55.6 °F 34.5 °F 45% 29.91 in 10.0 mi SE 11.5 mph 17.3 mph N/A   Mostly Cloudy
9:55 AM 56.1 °F 36.0 °F 47% 29.90 in 10.0 mi SE 15.0 mph 20.7 mph N/A   Mostly Cloudy
10:15 AM 56.7 °F 37.8 °F 49% 29.89 in 10.0 mi SSE 13.8 mph 20.7 mph N/A   Scattered Clouds
10:35 AM 58.5 °F 40.5 °F 51% 29.87 in 10.0 mi SE 15.0 mph 21.9 mph N/A   Scattered Clouds
10:55 AM 59.9 °F 42.8 °F 53% 29.86 in 10.0 mi SSE 17.3 mph 25.3 mph N/A   Scattered Clouds
11:15 AM 61.3 °F 44.2 °F 53% 29.85 in 10.0 mi South 18.4 mph 25.3 mph N/A   Clear
11:35 AM 61.5 °F 43.9 °F 52% 29.85 in 10.0 mi South 23.0 mph 29.9 mph N/A   Mostly Cloudy
11:55 AM 63.5 °F 45.5 °F 52% 29.83 in 10.0 mi SSE 21.9 mph 31.1 mph N/A   Mostly Cloudy
12:15 PM 64.6 °F 46.6 °F 52% 29.80 in 10.0 mi SSE 20.7 mph 31.1 mph N/A   Scattered Clouds
12:35 PM 66.9 °F 44.2 °F 44% 29.79 in 10.0 mi South 26.5 mph 33.4 mph N/A   Clear
12:55 PM 68.4 °F 44.1 °F 41% 29.78 in 10.0 mi SSE 23.0 mph 33.4 mph N/A   Clear
1:15 PM 68.7 °F 44.4 °F 42% 29.76 in 10.0 mi South 20.7 mph 34.5 mph N/A   Clear
1:35 PM 67.3 °F 45.5 °F 45% 29.75 in 10.0 mi South 27.6 mph 38.0 mph N/A   Mostly Cloudy
1:55 PM 66.2 °F 46.2 °F 49% 29.74 in 10.0 mi South 25.3 mph 33.4 mph N/A   Overcast
2:15 PM 65.7 °F 47.3 °F 51% 29.72 in 10.0 mi South 23.0 mph 32.2 mph N/A   Overcast
2:35 PM 65.3 °F 48.2 °F 54% 29.71 in 10.0 mi South 19.6 mph 32.2 mph N/A   Overcast
2:55 PM 65.3 °F 49.1 °F 56% 29.70 in 10.0 mi South 19.6 mph - N/A   Overcast
3:15 PM 65.3 °F 49.8 °F 57% 29.69 in 10.0 mi South 21.9 mph 26.5 mph N/A   Overcast
3:35 PM 65.3 °F 50.0 °F 58% 29.68 in 10.0 mi South 18.4 mph 26.5 mph N/A   Overcast
3:55 PM 65.7 °F 50.4 °F 58% 29.67 in 10.0 mi South 17.3 mph 26.5 mph N/A   Overcast
4:15 PM 66.2 °F 50.7 °F 57% 29.66 in 10.0 mi South 17.3 mph 28.8 mph N/A   Overcast
4:35 PM 66.6 °F 50.7 °F 57% 29.64 in 10.0 mi South 20.7 mph 31.1 mph N/A   Overcast
4:55 PM 66.6 °F 51.1 °F 57% 29.64 in 10.0 mi SSE 15.0 mph 21.9 mph N/A   Overcast
5:15 PM 66.7 °F 51.4 °F 58% 29.63 in 10.0 mi SSE 19.6 mph 26.5 mph N/A   Overcast
5:35 PM 67.1 °F 51.8 °F 58% 29.61 in 10.0 mi SSE 13.8 mph 26.5 mph N/A   Overcast
5:55 PM 67.3 °F 52.3 °F 59% 29.61 in 10.0 mi South 18.4 mph 24.2 mph N/A   Overcast
6:15 PM 67.5 °F 52.2 °F 58% 29.60 in 10.0 mi SSE 18.4 mph 26.5 mph N/A   Overcast
6:35 PM 67.5 °F 52.7 °F 59% 29.60 in 10.0 mi SSE 15.0 mph 27.6 mph N/A   Mostly Cloudy
6:55 PM 67.6 °F 52.7 °F 59% 29.60 in 10.0 mi SSE 15.0 mph 23.0 mph N/A   Scattered Clouds
7:15 PM 67.5 °F 52.7 °F 59% 29.59 in 10.0 mi SSE 17.3 mph 21.9 mph N/A   Clear
7:35 PM 66.4 °F 52.7 °F 61% 29.59 in 10.0 mi SSE 13.8 mph 20.7 mph N/A   Clear
7:55 PM 66.0 °F 52.7 °F 62% 29.59 in 10.0 mi SSE 17.3 mph 23.0 mph N/A   Clear
8:15 PM 65.7 °F 53.1 °F 64% 29.60 in 10.0 mi SE 11.5 mph 17.3 mph N/A   Clear
8:35 PM 65.3 °F 53.2 °F 65% 29.60 in 10.0 mi SSE 15.0 mph - N/A   Clear
8:55 PM 65.1 °F 53.6 °F 66% 29.59 in 10.0 mi SSE 19.6 mph 26.5 mph N/A   Clear
9:15 PM 64.8 °F 54.0 °F 68% 29.60 in 10.0 mi SSE 17.3 mph 20.7 mph N/A   Clear
9:35 PM 64.8 °F 54.7 °F 70% 29.60 in 10.0 mi SSE 19.6 mph 25.3 mph N/A   Clear
9:55 PM 64.6 °F 54.9 °F 71% 29.60 in 10.0 mi SSE 17.3 mph 27.6 mph N/A   Clear
10:15 PM 64.6 °F 55.4 °F 72% 29.61 in 10.0 mi SSE 19.6 mph 25.3 mph N/A   Clear
10:35 PM 64.2 °F 55.4 °F 73% 29.61 in 10.0 mi SSE 15.0 mph 23.0 mph N/A   Clear
10:55 PM 63.9 °F 55.4 °F 74% 29.61 in 10.0 mi SSE 16.1 mph 24.2 mph N/A   Clear
11:15 PM 63.7 °F 55.8 °F 75% 29.62 in 10.0 mi SSE 16.1 mph 24.2 mph N/A   Clear
11:35 PM 63.7 °F 56.3 °F 77% 29.62 in 10.0 mi SSE 13.8 mph 19.6 mph N/A   Mostly Cloudy
11:55 PM 63.9 °F 56.5 °F 77% 29.62 in 10.0 mi SSE 13.8 mph 24.2 mph N/A   Overcast